Precipitable_Water
0.55 0.63 0.64 0.56 0.58 0.61 0.61 0.47 0.32 0.65 0.93 0.55 0.48 0.40 0.46 0.53 0.49 0.56 0.49 0.47 0.42 0.41 0.43 0.41 0.46 0.45 0.54 0.74 0.71 0.61 0.71 0.62 0.47 0.51 0.66 0.70 0.65 0.56 0.52 0.35 0.31 0.38 0.35 0.33
0.57 0.64 0.67 0.63 0.58 0.64 0.49 0.38 0.40 0.76 0.75 0.40 0.47 0.55 0.53 0.52 0.46 0.49 0.52 0.44 0.47 0.47 0.42 0.37 0.44 0.52 0.69 0.76 0.69 0.65 0.71 0.60 0.46 0.46 0.55 0.62 0.56 0.56 0.53 0.48 0.46 0.36 0.32 0.31
0.60 0.64 0.67 0.67 0.61 0.59 0.48 0.39 0.26 0.50 0.60 0.53 0.50 0.45 0.45 0.45 0.58 0.55 0.56 0.49 0.50 0.46 0.44 0.53 0.48 0.54 0.64 0.69 0.73 0.78 0.75 0.62 0.52 0.43 0.47 0.54 0.50 0.54 0.53 0.47 0.38 0.37 0.39 0.37
0.61 0.64 0.69 0.69 0.67 0.58 0.50 0.39 0.30 0.41 0.38 0.42 0.37 0.51 0.49 0.44 0.41 0.53 0.54 0.44 0.44 0.43 0.42 0.46 0.47 0.54 0.57 0.62 0.69 0.71 0.67 0.51 0.56 0.61 0.60 0.57 0.52 0.49 0.50 0.48 0.47 0.40 0.39 0.42
0.63 0.66 0.71 0.69 0.71 0.62 0.50 0.29 0.33 0.39 0.42 0.49 0.48 0.42 0.35 0.38 0.48 0.44 0.43 0.45 0.43 0.49 0.44 0.44 0.38 0.45 0.50 0.49 0.61 0.61 0.66 0.50 0.57 0.47 0.56 0.56 0.48 0.50 0.52 0.51 0.49 0.48 0.46 0.41
0.62 0.68 0.71 0.70 0.73 0.66 0.49 0.43 0.49 0.45 0.33 0.40 0.42 0.42 0.45 0.46 0.51 0.47 0.48 0.46 0.43 0.38 0.40 0.46 0.48 0.53 0.54 0.56 0.52 0.56 0.58 0.55 0.49 0.36 0.51 0.51 0.37 0.44 0.45 0.46 0.50 0.48 0.42 0.47
0.60 0.65 0.70 0.73 0.76 0.72 0.55 0.49 0.47 0.37 0.30 0.32 0.32 0.36 0.42 0.44 0.42 0.36 0.44 0.44 0.41 0.49 0.68 0.67 0.62 0.58 0.55 0.55 0.56 0.59 0.49 0.48 0.45 0.40 0.49 0.31 0.42 0.51 0.50 0.47 0.49 0.51 0.48 0.46
0.58 0.63 0.69 0.72 0.76 0.76 0.60 0.57 0.45 0.41 0.30 0.39 0.39 0.41 0.43 0.45 0.47 0.50 0.50 0.49 0.61 0.70 0.61 0.44 0.34 0.36 0.40 0.41 0.46 0.49 0.52 0.47 0.38 0.37 0.38 0.40 0.44 0.50 0.48 0.46 0.42 0.47 0.44 0.46
0.58 0.60 0.67 0.71 0.73 0.75 0.71 0.58 0.55 0.45 0.37 0.32 0.46 0.44 0.47 0.40 0.42 0.46 0.49 0.58 0.74 0.66 0.46 0.39 0.26 0.19 0.29 0.30 0.38 0.51 0.52 0.54 0.45 0.38 0.32 0.27 0.39 0.45 0.49 0.49 0.35 0.45 0.45 0.45
0.60 0.61 0.64 0.70 0.73 0.74 0.73 0.61 0.60 0.46 0.36 0.46 0.46 0.41 0.41 0.50 0.47 0.40 0.49 0.56 0.55 0.58 0.37 0.30 0.26 0.27 0.38 0.29 0.29 0.32 0.40 0.42 0.37 0.39 0.38 0.42 0.54 0.48 0.53 0.37 0.39 0.48 0.51 0.48
0.60 0.62 0.66 0.69 0.71 0.73 0.71 0.65 0.66 0.49 0.39 0.45 0.52 0.54 0.47 0.48 0.46 0.37 0.47 0.46 0.47 0.42 0.34 0.32 0.34 0.32 0.33 0.36 0.41 0.37 0.37 0.37 0.37 0.44 0.38 0.33 0.52 0.47 0.43 0.50 0.55 0.57 0.48 0.45
0.63 0.65 0.66 0.68 0.70 0.72 0.73 0.61 0.67 0.68 0.49 0.41 0.54 0.61 0.62 0.59 0.56 0.50 0.54 0.50 0.50 0.52 0.41 0.39 0.40 0.36 0.44 0.44 0.32 0.50 0.38 0.50 0.47 0.49 0.47 0.56 0.58 0.57 0.60 0.61 0.55 0.50 0.47 0.45
0.65 0.67 0.68 0.68 0.69 0.73 0.71 0.66 0.66 0.61 0.49 0.47 0.46 0.42 0.60 0.66 0.65 0.70 0.45 0.58 0.63 0.59 0.66 0.55 0.53 0.44 0.51 0.38 0.38 0.47 0.58 0.66 0.55 0.54 0.60 0.60 0.63 0.65 0.57 0.54 0.52 0.52 0.48 0.41
0.66 0.67 0.69 0.69 0.69 0.71 0.74 0.65 0.66 0.59 0.51 0.37 0.39 0.54 0.47 0.62 0.70 0.64 0.65 0.58 0.66 0.63 0.64 0.54 0.50 0.46 0.55 0.45 0.54 0.54 0.60 0.63 0.57 0.54 0.60 0.62 0.60 0.58 0.56 0.55 0.55 0.45 0.40 0.36
0.67 0.69 0.70 0.70 0.71 0.72 0.75 0.73 0.70 0.67 0.49 0.35 0.35 0.47 0.52 0.52 0.56 0.61 0.62 0.61 0.58 0.55 0.49 0.45 0.44 0.50 0.53 0.55 0.57 0.52 0.64 0.59 0.53 0.49 0.60 0.59 0.56 0.59 0.59 0.49 0.40 0.37 0.32 0.28
0.70 0.71 0.73 0.72 0.72 0.74 0.69 0.54 0.70 0.70 0.59 0.42 0.32 0.43 0.42 0.47 0.49 0.56 0.56 0.57 0.59 0.55 0.49 0.46 0.49 0.55 0.54 0.47 0.45 0.59 0.65 0.68 0.67 0.59 0.65 0.63 0.61 0.57 0.44 0.37 0.33 0.30 0.24 0.21
0.72 0.73 0.74 0.74 0.75 0.73 0.59 0.51 0.61 0.70 0.63 0.44 0.35 0.34 0.44 0.48 0.43 0.47 0.46 0.51 0.52 0.51 0.48 0.45 0.46 0.48 0.54 0.48 0.43 0.55 0.58 0.62 0.64 0.63 0.61 0.55 0.47 0.38 0.37 0.32 0.27 0.22 0.18 0.14
0.74 0.74 0.75 0.76 0.77 0.75 0.63 0.69 0.71 0.71 0.58 0.52 0.34 0.31 0.34 0.45 0.35 0.31 0.40 0.37 0.46 0.45 0.43 0.45 0.43 0.48 0.50 0.40 0.52 0.53 0.55 0.58 0.61 0.61 0.57 0.46 0.42 0.35 0.28 0.24 0.18 0.13 0.11 0.10
0.75 0.75 0.76 0.74 0.66 0.55 0.60 0.74 0.72 0.69 0.57 0.39 0.35 0.28 0.25 0.43 0.37 0.39 0.39 0.38 0.30 0.41 0.36 0.40 0.44 0.39 0.36 0.44 0.48 0.49 0.53 0.55 0.55 0.54 0.45 0.39 0.29 0.23 0.18 0.15 0.12 0.10 0.10 0.09
0.73 0.70 0.58 0.47 0.58 0.74 0.72 0.63 0.52 0.52 0.52 0.47 0.34 0.37 0.29 0.37 0.35 0.34 0.37 0.41 0.33 0.26 0.34 0.45 0.39 0.37 0.47 0.48 0.53 0.55 0.57 0.58 0.54 0.42 0.33 0.24 0.18 0.15 0.12 0.10 0.11 0.11 0.09 0.10
0.59 0.49 0.47 0.60 0.73 0.61 0.52 0.41 0.40 0.41 0.36 0.41 0.39 0.38 0.32 0.43 0.30 0.30 0.37 0.34 0.37 0.28 0.33 0.35 0.33 0.33 0.41 0.51 0.51 0.58 0.62 0.56 0.45 0.36 0.26 0.20 0.15 0.11 0.10 0.10 0.11 0.11 0.11 0.11
0.57 0.55 0.62 0.60 0.53 0.44 0.37 0.34 0.37 0.34 0.29 0.36 0.31 0.34 0.37 0.39 0.42 0.33 0.34 0.28 0.32 0.24 0.38 0.31 0.26 0.33 0.45 0.50 0.52 0.57 0.58 0.48 0.32 0.25 0.19 0.14 0.12 0.11 0.11 0.10 0.11 0.13 0.12 0.12
0.61 0.53 0.45 0.43 0.40 0.30 0.27 0.24 0.27 0.28 0.34 0.34 0.33 0.31 0.37 0.39 0.40 0.33 0.32 0.25 0.24 0.35 0.26 0.24 0.27 0.38 0.46 0.49 0.56 0.56 0.48 0.30 0.24 0.20 0.14 0.11 0.12 0.12 0.11 0.11 0.14 0.14 0.11 0.12
0.44 0.38 0.29 0.32 0.28 0.30 0.27 0.25 0.24 0.30 0.35 0.33 0.33 0.32 0.33 0.36 0.32 0.33 0.26 0.30 0.32 0.25 0.23 0.23 0.32 0.40 0.45 0.51 0.50 0.39 0.28 0.24 0.20 0.14 0.12 0.11 0.11 0.11 0.13 0.13 0.14 0.12 0.12 0.12
0.39 0.37 0.25 0.27 0.34 0.31 0.29 0.30 0.29 0.32 0.35 0.35 0.35 0.35 0.34 0.31 0.30 0.33 0.32 0.28 0.24 0.25 0.24 0.30 0.38 0.45 0.51 0.44 0.32 0.28 0.25 0.22 0.18 0.13 0.11 0.11 0.11 0.12 0.12 0.13 0.13 0.13 0.12 0.12
0.40 0.36 0.29 0.32 0.30 0.29 0.29 0.29 0.29 0.34 0.34 0.36 0.37 0.35 0.30 0.28 0.28 0.26 0.25 0.23 0.20 0.25 0.33 0.40 0.45 0.48 0.41 0.28 0.27 0.26 0.26 0.21 0.15 0.12 0.11 0.12 0.12 0.12 0.12 0.13 0.13 0.13 0.13 0.12
0.37 0.33 0.38 0.32 0.32 0.31 0.32 0.33 0.33 0.42 0.34 0.26 0.33 0.31 0.31 0.37 0.28 0.24 0.27 0.24 0.28 0.35 0.41 0.47 0.37 0.28 0.26 0.26 0.27 0.27 0.22 0.16 0.13 0.12 0.13 0.13 0.13 0.13 0.12 0.12 0.13 0.13 0.13 0.13
Wind_Speed
45 44 43 41 39 36 33 30 29 30 33 32 33 36 28 29 25 27 25 21 21 20 18 18 17 18 15 14 13 12 14 15 16 19 19 19 21 21 19 18 21 22 24 29
46 46 45 43 42 40 34 31 30 29 34 33 34 30 31 29 26 25 23 23 22 22 21 20 20 18 16 16 14 14 16 14 15 16 16 18 19 20 19 20 21 24 26 30
48 47 47 45 45 43 37 31 30 29 36 34 32 31 31 29 29 25 23 21 21 20 21 21 21 19 17 17 17 16 16 18 19 21 20 16 20 22 24 23 24 30 32 44
49 49 48 48 47 46 41 36 33 32 32 36 35 35 28 30 27 28 26 26 26 21 20 20 21 20 21 19 20 20 20 20 21 21 21 21 25 26 26 28 32 30 40 41
51 50 51 50 49 48 44 38 33 34 32 34 33 34 36 32 33 26 26 24 18 22 23 23 23 24 24 24 23 22 24 22 21 25 26 27 29 29 31 34 36 37 39 41
52 52 52 52 53 52 44 46 40 33 36 33 35 37 33 31 28 29 31 24 24 27 29 30 30 28 28 28 26 24 22 22 22 33 25 23 29 28 32 31 30 28 32 34
55 54 54 55 56 56 47 45 40 36 34 37 38 32 38 36 32 33 27 28 26 22 20 21 22 24 26 26 28 27 27 26 27 28 23 29 28 26 25 26 27 27 29 28
57 57 57 57 57 58 52 46 45 38 35 33 36 34 33 34 34 32 32 24 24 22 21 20 22 22 24 25 25 27 26 25 25 25 28 34 33 30 26 24 26 26 26 25
60 59 58 58 58 58 54 49 47 42 36 36 32 33 32 32 32 31 28 26 24 24 22 21 23 22 21 21 20 20 22 23 24 23 25 27 25 24 24 24 27 23 21 23
60 60 60 60 59 59 55 52 48 44 40 34 34 32 33 31 28 27 27 26 26 26 24 23 23 23 22 23 23 21 19 20 26 27 25 27 27 25 24 20 24 21 22 23
60 60 60 60 60 59 57 50 50 47 42 37 33 32 32 29 31 30 28 25 26 24 23 22 23 22 24 24 25 24 23 21 20 20 21 27 23 23 21 23 24 24 24 26
59 59 60 60 60 59 58 49 51 46 42 38 40 31 32 30 31 29 27 25 22 22 21 23 22 22 21 21 22 19 21 22 20 21 23 22 22 22 24 25 24 24 24 25
58 58 58 59 59 59 58 51 50 46 42 38 37 38 34 32 31 30 29 27 25 23 22 20 21 23 20 20 22 20 21 22 21 20 21 24 23 25 24 21 20 21 22 23
55 56 56 56 57 56 56 51 50 49 39 39 35 37 36 36 31 31 30 28 28 26 25 24 24 23 22 22 22 23 22 20 20 23 24 21 23 21 19 19 19 19 21 23
52 53 54 55 54 54 51 47 49 49 43 33 38 35 33 34 35 33 30 28 27 26 26 26 26 25 22 22 23 22 22 20 21 23 21 21 20 19 19 17 18 20 22 24
51 51 51 53 53 53 47 39 47 47 45 33 28 31 36 34 34 30 30 28 25 25 24 25 26 25 24 23 23 23 23 22 22 21 19 19 18 16 16 16 18 20 23 25
50 50 50 50 51 51 46 39 39 47 42 34 30 29 27 28 33 33 30 27 26 25 23 24 24 24 23 24 24 24 22 22 19 18 18 18 17 16 15 16 19 21 24 27
48 48 48 48 48 44 40 37 38 44 37 32 29 28 29 30 27 28 31 29 26 24 23 22 23 24 25 25 25 22 20 18 19 20 18 15 13 13 15 18 19 22 25 28
48 47 47 44 42 37 37 37 38 38 33 31 29 30 28 30 27 26 24 26 26 25 24 23 22 23 23 23 22 21 20 19 16 13 11 11 12 14 16 18 21 23 25 27
49 47 40 34 40 42 38 32 31 30 31 30 28 28 27 27 26 24 22 22 22 23 24 22 24 24 24 22 21 20 19 16 14 11 11 12 13 14 16 19 21 22 24 26
45 38 35 37 45 37 29 27 30 28 29 31 29 29 27 27 24 24 24 21 19 20 22 22 21 21 20 19 17 18 18 16 14 12 11 12 12 14 17 19 20 21 24 26
43 39 39 38 34 31 29 28 30 28 29 29 30 28 26 25 24 22 24 23 22 21 19 20 20 18 17 16 16 16 15 14 11 10 10 10 12 15 17 18 19 21 24 26
41 38 30 32 29 29 32 32 29 27 28 30 29 26 26 24 24 22 21 22 24 21 22 22 20 16 16 15 13 13 14 12 10 9 9 11 13 15 16 18 20 22 24 26
32 30 30 28 29 27 30 33 31 31 24 26 28 26 25 25 24 22 23 24 21 21 20 19 17 19 16 14 14 15 14 12 10 9 10 11 12 14 16 18 19 22 24 25
27 25 26 27 26 24 25 25 27 30 29 27 26 25 25 26 25 25 22 21 21 20 17 16 17 16 15 15 16 16 13 11 10 9 10 11 12 14 16 17 19 22 23 25
24 21 22 21 22 23 23 24 23 28 29 29 25 23 25 27 27 25 26 23 20 16 15 14 13 14 15 17 17 14 12 10 9 9 9 10 12 13 15 17 19 22 23 25
21 19 18 22 21 22 22 23 25 29 32 28 25 25 24 22 24 25 22 19 17 15 14 13 13 15 18 17 15 13 11 9 8 8 9 10 11 13 15 17 20 22 24 25
Wind_Direction
230 228 226 225 224 223 223 226 230 224 216 224 230 232 233 238 240 244 249 250 251 250 253 257 260 259 261 268 260 256 261 265 262 257 261 263 273 271 266 275 281 280 286 285
229 227 225 223 222 220 221 227 228 223 218 224 229 232 234 239 238 240 241 243 245 249 253 259 255 260 262 268 264 262 259 260 273 274 271 273 262 266 271 278 284 279 285 288
227 225 223 221 219 218 219 223 225 225 222 228 226 226 231 232 234 239 241 249 249 250 254 250 256 257 264 267 264 266 259 266 257 261 273 272 269 271 275 278 282 287 282 291
226 224 222 220 218 216 217 221 226 223 225 225 228 228 231 232 237 237 242 248 245 245 252 254 254 256 260 267 267 267 268 267 270 274 266 269 274 276 276 276 280 282 290 290
225 223 221 218 217 214 219 222 224 225 229 223 225 227 231 231 233 233 238 240 242 239 242 248 258 260 260 261 267 266 263 267 267 270 276 271 276 277 279 280 281 283 285 289
224 222 220 218 215 214 221 221 224 226 227 227 226 229 229 230 229 241 239 242 246 251 255 257 257 260 261 262 260 261 260 261 273 280 274 277 279 282 280 279 278 281 286 294
223 222 220 218 217 217 221 221 223 225 231 227 229 231 231 233 235 239 241 238 242 246 250 258 261 263 264 261 262 262 262 266 271 275 275 276 291 294 288 280 279 285 292 295
223 222 220 218 218 218 220 221 220 224 229 230 229 229 229 231 233 234 236 238 238 240 249 260 264 265 267 262 266 264 265 267 267 268 272 283 284 290 291 285 287 291 289 291
222 221 219 217 217 217 219 221 220 223 226 230 231 229 229 231 232 235 238 238 236 241 250 255 256 260 262 268 270 272 270 268 262 269 272 279 288 291 295 295 289 289 289 293
220 219 218 216 215 215 217 219 219 221 226 230 230 229 229 229 229 234 235 237 238 246 248 251 254 258 260 264 267 270 269 274 264 268 272 280 283 287 291 291 295 290 290 293
218 217 216 214 213 213 215 218 217 219 223 226 228 230 231 231 231 232 236 239 242 240 241 248 252 258 261 266 268 263 264 271 271 271 274 280 282 285 283 289 294 292 294 297
215 214 213 212 212 212 212 217 215 218 221 227 227 228 229 231 231 231 233 237 235 235 242 247 251 254 261 268 274 265 265 262 270 268 278 283 288 287 288 292 291 294 297 302
212 211 210 210 209 209 210 214 212 214 218 225 226 227 229 230 230 231 232 236 239 240 243 249 252 255 257 264 268 265 271 270 275 279 273 284 284 288 290 293 292 298 302 305
208 207 207 206 206 206 207 213 211 212 218 223 227 227 229 228 231 232 233 237 238 242 247 249 250 253 260 267 269 269 272 270 278 279 285 283 288 287 284 290 295 299 305 308
203 203 202 202 202 202 204 210 210 211 212 222 225 226 228 228 229 231 232 236 238 240 243 245 251 255 261 267 271 267 273 271 277 283 279 284 286 283 284 288 296 301 305 310
197 197 197 198 197 196 198 205 209 209 210 219 223 226 226 227 225 225 227 231 234 239 243 248 252 253 255 264 265 270 270 272 275 282 283 284 280 280 283 291 298 305 310 312
193 193 193 193 193 194 199 206 206 202 205 213 219 221 218 218 220 224 226 230 234 239 247 250 250 252 255 261 261 271 273 271 272 276 280 282 269 277 285 295 303 308 313 315
186 186 187 187 187 192 200 205 198 196 202 210 215 217 216 216 218 221 225 227 232 239 245 248 252 250 254 261 264 265 270 266 272 278 278 269 268 280 291 299 305 311 315 317
179 179 177 178 187 191 194 193 190 195 205 209 213 210 215 213 216 219 222 227 233 237 243 247 249 246 250 263 263 261 256 267 262 264 260 265 275 285 294 302 309 313 316 319
170 168 172 180 184 175 175 184 192 199 208 211 212 208 210 210 213 217 219 226 230 237 242 241 244 248 256 267 265 257 258 252 243 246 261 268 277 287 299 307 311 314 318 322
168 171 175 174 172 179 185 191 194 199 204 207 208 209 208 213 214 216 220 225 229 238 238 235 243 252 258 261 260 250 246 238 243 258 263 272 281 293 303 308 311 317 320 321
172 171 167 173 180 188 192 197 200 204 207 206 205 207 209 211 212 217 221 227 230 234 225 235 245 256 249 255 253 239 228 223 237 248 261 277 291 299 305 311 316 318 321 324
163 168 176 179 185 191 196 197 197 201 204 205 202 203 207 210 215 220 223 225 229 227 233 242 252 249 247 248 237 219 216 220 231 249 267 286 294 302 310 316 317 320 324 327
172 176 180 189 193 201 204 203 204 205 203 197 198 203 210 213 215 218 222 223 224 228 237 246 246 238 240 238 218 207 209 218 231 249 271 286 296 307 314 317 320 324 327 328
174 181 186 194 199 199 198 199 201 206 203 200 203 211 213 213 214 216 216 217 225 228 239 249 244 236 230 212 204 202 209 221 237 256 275 291 303 311 316 320 324 327 328 330
179 183 185 190 190 194 195 198 198 199 194 192 196 201 203 206 207 208 213 216 223 234 244 246 236 221 205 196 196 202 210 222 241 262 281 294 304 312 319 324 326 327 329 330
180 183 186 189 190 192 192 189 188 184 181 184 186 188 194 192 204 210 213 220 229 234 240 234 217 200 189 188 191 199 210 227 248 269 284 296 308 316 321 324 325 328 331 333